| time (UTC) | temp F | wind direction | speed knots | gust knots | rain 1hr in | rain 24hr in | rain mn in | humidity % | barometer mb |
| 20260508170038 | 66 | 76 | 2.6 | 2.6 | 0.00 | 0.00 | 0.00 | 65 | 1015.9 |
| 20260508165535 | 66 | 111 | 2.6 | 2.6 | 0.00 | 0.00 | 0.00 | 67 | 1016.0 |
| 20260508165032 | 66 | 121 | 2.6 | 2.6 | 0.00 | 0.00 | 0.00 | 67 | 1016.3 |
| 20260508164528 | 66 | 118 | 1.7 | 1.7 | 0.00 | 0.00 | 0.00 | 63 | 1016.1 |
| 20260508164025 | 66 | 102 | 2.6 | 2.6 | 0.00 | 0.00 | 0.00 | 67 | 1016.1 |
| 20260508163523 | 66 | 91 | 2.6 | 2.6 | 0.00 | 0.00 | 0.00 | 65 | 1016.3 |
| 20260508163019 | 67 | 99 | 1.7 | 1.7 | 0.00 | 0.00 | 0.00 | 67 | 1016.3 |
| 20260508162516 | 66 | 91 | 1.7 | 1.7 | 0.00 | 0.00 | 0.00 | 65 | 1016.5 |
| 20260508162013 | 66 | 102 | 2.6 | 2.6 | 0.00 | 0.00 | 0.00 | 66 | 1016.3 |
| 20260508161510 | 66 | 90 | 1.7 | 1.7 | 0.00 | 0.00 | 0.00 | 62 | 1016.3 |
| 20260508161007 | 66 | 101 | 1.7 | 1.7 | 0.00 | 0.00 | 0.00 | 65 | 1016.6 |
| 20260508160506 | 65 | 80 | 1.7 | 1.7 | 0.00 | 0.00 | 0.00 | 64 | 1016.5 |
| 20260508160002 | 65 | 79 | 0.9 | 1.7 | 0.00 | 0.00 | 0.00 | 65 | 1016.7 |
| 20260508155459 | 66 | 136 | 2.6 | 2.6 | 0.00 | 0.00 | 0.00 | 64 | 1016.3 |
| 20260508154956 | 66 | 96 | 2.6 | 2.6 | 0.00 | 0.00 | 0.00 | 65 | 1016.5 |
| 20260508154454 | 66 | 82 | 1.7 | 1.7 | 0.00 | 0.00 | 0.00 | 63 | 1016.4 |
| 20260508153950 | 66 | 93 | 1.7 | 1.7 | 0.00 | 0.00 | 0.00 | 62 | 1016.7 |
| 20260508153447 | 66 | 94 | 1.7 | 1.7 | 0.00 | 0.00 | 0.00 | 60 | 1016.6 |
| 20260508152943 | 66 | 79 | 0.9 | 0.9 | 0.00 | 0.00 | 0.00 | 62 | 1016.4 |
| 20260508152440 | 65 | 104 | 1.7 | 1.7 | 0.00 | 0.00 | 0.00 | 61 | 1016.5 |
| 20260508151936 | 64 | 105 | 1.7 | 2.6 | 0.00 | 0.00 | 0.00 | 67 | 1016.5 |
| 20260508151433 | 65 | 109 | 3.5 | 4.3 | 0.00 | 0.00 | 0.00 | 60 | 1016.3 |
| 20260508150929 | 66 | 113 | 2.6 | 4.3 | 0.00 | 0.00 | 0.00 | 60 | 1016.1 |
| 20260508150426 | 67 | 88 | 0.9 | 0.9 | 0.00 | 0.00 | 0.00 | 62 | 1016.3 |
| 20260508145922 | 67 | 12 | 0.0 | 0.0 | 0.00 | 0.00 | 0.00 | 61 | 1016.2 |
| 20260508145419 | 66 | 5 | 0.0 | 0.0 | 0.00 | 0.00 | 0.00 | 63 | 1016.0 |
| 20260508144915 | 66 | 53 | 0.9 | 0.9 | 0.00 | 0.00 | 0.00 | 59 | 1016.0 |
| 20260508144413 | 64 | 31 | 0.9 | 0.9 | 0.00 | 0.00 | 0.00 | 63 | 1016.1 |
| 20260508143911 | 65 | 352 | 3.5 | 5.2 | 0.00 | 0.00 | 0.00 | 59 | 1016.2 |
| 20260508143408 | 65 | 33 | 0.0 | 0.9 | 0.00 | 0.00 | 0.00 | 62 | 1016.1 |
| 20260508142904 | 64 | 8 | 0.9 | 1.7 | 0.00 | 0.00 | 0.00 | 65 | 1016.3 |
| 20260508142401 | 63 | 68 | 0.0 | 0.9 | 0.00 | 0.00 | 0.00 | 65 | 1016.2 |
| 20260508141857 | 63 | 31 | 1.7 | 1.7 | 0.00 | 0.00 | 0.00 | 65 | 1016.3 |
| 20260508141354 | 63 | 0 | 2.6 | 2.6 | 0.00 | 0.00 | 0.00 | 65 | 1016.0 |
| 20260508140852 | 63 | 350 | 2.6 | 2.6 | 0.00 | 0.00 | 0.00 | 67 | 1016.0 |
| 20260508140349 | 62 | 25 | 0.0 | 0.9 | 0.00 | 0.00 | 0.00 | 71 | 1016.0 |
| 20260508135844 | 62 | 23 | 1.7 | 1.7 | 0.00 | 0.00 | 0.00 | 70 | 1016.0 |
| 20260508135341 | 62 | 49 | 0.9 | 1.7 | 0.00 | 0.00 | 0.00 | 71 | 1015.8 |
| 20260508134837 | 61 | 18 | 2.6 | 2.6 | 0.00 | 0.00 | 0.00 | 69 | 1015.9 |
| 20260508134334 | 60 | 11 | 3.5 | 5.2 | 0.00 | 0.00 | 0.00 | 70 | 1015.9 |
| 20260508133831 | 60 | 13 | 0.9 | 0.9 | 0.00 | 0.00 | 0.00 | 73 | 1015.8 |
| 20260508133329 | 60 | 17 | 0.9 | 0.9 | 0.00 | 0.00 | 0.00 | 75 | 1016.0 |
| 20260508132826 | 59 | 349 | 2.6 | 2.6 | 0.00 | 0.00 | 0.00 | 75 | 1015.8 |
| 20260508132323 | 59 | 1 | 2.6 | 2.6 | 0.00 | 0.00 | 0.00 | 77 | 1015.8 |
| 20260508131820 | 58 | 17 | 0.0 | 0.9 | 0.00 | 0.00 | 0.00 | 80 | 1015.7 |
| 20260508131316 | 57 | 356 | 1.7 | 1.7 | 0.00 | 0.00 | 0.00 | 83 | 1015.5 |
| 20260508130812 | 57 | 356 | 1.7 | 1.7 | 0.00 | 0.00 | 0.00 | 88 | 1015.6 |
| 20260508130309 | 56 | 32 | 1.7 | 2.6 | 0.00 | 0.00 | 0.00 | 92 | 1015.3 |
| 20260508125806 | 56 | 15 | 0.9 | 1.7 | 0.00 | 0.00 | 0.00 | 95 | 1015.4 |
| 20260508125305 | 55 | 349 | 0.0 | 0.0 | 0.00 | 0.00 | 0.00 | 96 | 1015.4 |
| 20260508124800 | 55 | 18 | 0.0 | 0.0 | 0.00 | 0.00 | 0.00 | 96 | 1015.3 |
| 20260508124256 | 55 | 8 | 0.0 | 0.0 | 0.00 | 0.00 | 0.00 | 97 | 1015.2 |
| 20260508123754 | 54 | 37 | 0.9 | 0.9 | 0.00 | 0.00 | 0.00 | 97 | 1015.2 |
| 20260508123253 | 54 | 20 | 0.9 | 1.7 | 0.00 | 0.00 | 0.00 | 97 | 1015.1 |
| 20260508122748 | 53 | 39 | 0.0 | 0.9 | 0.00 | 0.00 | 0.00 | 97 | 1015.5 |
| 20260508122245 | 53 | 51 | 0.9 | 1.7 | 0.00 | 0.00 | 0.00 | 97 | 1015.1 |
| 20260508121743 | 53 | 61 | 0.0 | 0.0 | 0.00 | 0.00 | 0.00 | 97 | 1015.0 |
| 20260508121241 | 53 | 8 | 0.0 | 0.9 | 0.00 | 0.00 | 0.00 | 97 | 1014.9 |
| 20260508120738 | 52 | 311 | 0.0 | 0.0 | 0.00 | 0.00 | 0.00 | 97 | 1015.1 |
| 20260508120237 | 52 | 25 | 0.0 | 0.0 | 0.00 | 0.00 | 0.00 | 97 | 1014.8 |
| 20260508115734 | 52 | 5 | 0.0 | 0.0 | 0.00 | 0.00 | 0.00 | 97 | 1015.0 |
| 20260508115231 | 51 | 10 | 0.0 | 0.0 | 0.00 | 0.00 | 0.00 | 97 | 1014.9 |
| 20260508114727 | 51 | 39 | 0.0 | 0.0 | 0.00 | 0.00 | 0.00 | 97 | 1014.6 |
| 20260508114224 | 51 | 26 | 0.0 | 0.0 | 0.00 | 0.00 | 0.00 | 97 | 1014.7 |
| 20260508113721 | 51 | 13 | 0.0 | 0.0 | 0.00 | 0.00 | 0.00 | 97 | 1014.7 |
| 20260508113219 | 50 | 0 | 0.0 | 0.0 | 0.00 | 0.00 | 0.00 | 97 | 1014.6 |
| 20260508112715 | 50 | 352 | 0.0 | 0.0 | 0.00 | 0.00 | 0.00 | 97 | 1014.6 |
| 20260508112212 | 50 | 11 | 0.0 | 0.0 | 0.00 | 0.00 | 0.00 | 97 | 1014.3 |
| 20260508111709 | 49 | 352 | 0.0 | 0.9 | 0.00 | 0.00 | 0.00 | 97 | 1014.5 |
| 20260508111206 | 49 | 312 | 0.9 | 0.9 | 0.00 | 0.00 | 0.00 | 97 | 1014.3 |
| 20260508110704 | 49 | 301 | 0.0 | 0.0 | 0.00 | 0.00 | 0.00 | 97 | 1014.2 |
| 20260508110200 | 48 | 49 | 0.0 | 0.0 | 0.00 | 0.00 | 0.00 | 97 | 1014.1 |
| 20260508105700 | 48 | 322 | 0.0 | 0.9 | 0.00 | 0.00 | 0.00 | 97 | 1014.0 |
| 20260508105157 | 48 | 320 | 0.0 | 0.0 | 0.00 | 0.00 | 0.00 | 97 | 1013.9 |
| 20260508104655 | 48 | 300 | 0.0 | 0.0 | 0.00 | 0.00 | 0.00 | 97 | 1014.0 |
| 20260508104152 | 48 | 337 | 0.0 | 0.0 | 0.00 | 0.00 | 0.00 | 97 | 1013.9 |
| 20260508103649 | 48 | 345 | 0.0 | 0.0 | 0.00 | 0.00 | 0.00 | 97 | 1013.9 |
| 20260508103146 | 48 | 357 | 0.0 | 0.0 | 0.00 | 0.00 | 0.00 | 97 | 1013.6 |
| 20260508102643 | 48 | 16 | 0.0 | 0.0 | 0.00 | 0.00 | 0.00 | 97 | 1013.7 |
| 20260508102141 | 48 | 338 | 0.0 | 0.0 | 0.00 | 0.00 | 0.00 | 97 | 1013.8 |
| 20260508101638 | 48 | 351 | 0.0 | 0.0 | 0.00 | 0.00 | 0.00 | 97 | 1013.6 |
| 20260508101135 | 48 | 30 | 0.0 | 0.0 | 0.00 | 0.00 | 0.00 | 97 | 1013.5 |
| 20260508100633 | 48 | 11 | 0.0 | 0.0 | 0.00 | 0.00 | 0.00 | 97 | 1013.6 |
| 20260508100131 | 49 | 2 | 0.0 | 0.0 | 0.00 | 0.00 | 0.00 | 97 | 1013.3 |
| 20260508095627 | 49 | 17 | 0.0 | 0.0 | 0.00 | 0.00 | 0.00 | 97 | 1013.5 |
| 20260508095124 | 49 | 19 | 0.0 | 0.0 | 0.00 | 0.00 | 0.00 | 97 | 1013.3 |
| 20260508094621 | 49 | 17 | 0.0 | 0.0 | 0.00 | 0.00 | 0.00 | 97 | 1013.2 |
| 20260508094118 | 49 | 17 | 0.0 | 0.0 | 0.00 | 0.00 | 0.00 | 97 | 1013.2 |
| 20260508093615 | 49 | 32 | 0.0 | 0.0 | 0.00 | 0.00 | 0.00 | 97 | 1013.2 |
| 20260508093113 | 49 | 33 | 0.0 | 0.0 | 0.00 | 0.00 | 0.00 | 97 | 1013.1 |
| 20260508092609 | 49 | 30 | 0.0 | 0.0 | 0.00 | 0.00 | 0.00 | 97 | 1012.9 |
| 20260508092108 | 49 | 36 | 0.0 | 0.0 | 0.00 | 0.00 | 0.00 | 97 | 1013.1 |
| 20260508091605 | 49 | 16 | 0.0 | 0.0 | 0.00 | 0.00 | 0.00 | 97 | 1012.7 |
| 20260508091102 | 49 | 16 | 0.0 | 0.0 | 0.00 | 0.00 | 0.00 | 97 | 1013.0 |
| 20260508090600 | 49 | 20 | 0.0 | 0.0 | 0.00 | 0.00 | 0.00 | 97 | 1012.7 |
| 20260508090056 | 49 | 10 | 0.0 | 0.0 | 0.00 | 0.00 | 0.00 | 97 | 1012.8 |
| 20260508085553 | 49 | 19 | 0.0 | 0.0 | 0.00 | 0.00 | 0.00 | 97 | 1012.6 |
| 20260508085050 | 49 | 352 | 0.0 | 0.0 | 0.00 | 0.00 | 0.00 | 97 | 1012.8 |
| 20260508084547 | 49 | 354 | 0.0 | 0.0 | 0.00 | 0.00 | 0.00 | 97 | 1012.8 |
| 20260508084044 | 49 | 347 | 0.0 | 0.0 | 0.00 | 0.00 | 0.00 | 97 | 1012.7 |
| 20260508083541 | 49 | 347 | 0.0 | 0.0 | 0.00 | 0.00 | 0.00 | 97 | 1012.6 |
| 20260508083038 | 49 | 347 | 0.0 | 0.0 | 0.00 | 0.00 | 0.00 | 97 | 1012.7 |
| 20260508082534 | 50 | 32 | 0.0 | 0.0 | 0.00 | 0.00 | 0.00 | 97 | 1012.5 |
| 20260508082031 | 50 | 32 | 0.0 | 0.0 | 0.00 | 0.00 | 0.00 | 97 | 1012.5 |
| 20260508081529 | 50 | 42 | 0.0 | 0.0 | 0.00 | 0.00 | 0.00 | 97 | 1012.6 |
| 20260508081024 | 50 | 42 | 0.0 | 0.0 | 0.00 | 0.00 | 0.00 | 97 | 1012.3 |
| 20260508080523 | 50 | 42 | 0.0 | 0.0 | 0.00 | 0.00 | 0.00 | 97 | 1012.3 |
| 20260508080020 | 50 | 42 | 0.0 | 0.0 | 0.00 | 0.00 | 0.00 | 97 | 1012.4 |
| 20260508075516 | 50 | 42 | 0.0 | 0.0 | 0.00 | 0.00 | 0.00 | 96 | 1012.2 |
| 20260508075014 | 50 | 42 | 0.0 | 0.0 | 0.00 | 0.00 | 0.00 | 96 | 1012.3 |
| 20260508074512 | 51 | 42 | 0.0 | 0.0 | 0.00 | 0.00 | 0.00 | 96 | 1012.3 |
| 20260508074008 | 51 | 43 | 0.0 | 0.0 | 0.00 | 0.00 | 0.00 | 96 | 1012.0 |
| 20260508073505 | 51 | 54 | 0.0 | 0.0 | 0.00 | 0.00 | 0.00 | 96 | 1012.1 |
| 20260508073003 | 51 | 42 | 0.0 | 0.0 | 0.00 | 0.00 | 0.00 | 96 | 1012.3 |
| 20260508072458 | 50 | 26 | 0.0 | 0.0 | 0.00 | 0.00 | 0.00 | 96 | 1012.3 |
| 20260508071956 | 50 | 353 | 0.0 | 0.0 | 0.00 | 0.00 | 0.00 | 96 | 1012.4 |
| 20260508071454 | 50 | 353 | 0.0 | 0.0 | 0.00 | 0.00 | 0.00 | 96 | 1012.4 |
| 20260508070951 | 50 | 348 | 0.0 | 0.0 | 0.00 | 0.00 | 0.00 | 96 | 1012.2 |
| 20260508070449 | 50 | 357 | 0.0 | 0.0 | 0.00 | 0.00 | 0.00 | 96 | 1012.1 |
| 20260508065947 | 50 | 353 | 0.0 | 0.0 | 0.00 | 0.00 | 0.00 | 96 | 1012.4 |
| 20260508065444 | 50 | 352 | 0.0 | 0.0 | 0.00 | 0.00 | 0.00 | 96 | 1012.2 |
| 20260508064942 | 50 | 352 | 0.0 | 0.0 | 0.00 | 0.00 | 0.00 | 96 | 1012.2 |
| 20260508064439 | 50 | 352 | 0.0 | 0.0 | 0.00 | 0.00 | 0.00 | 96 | 1012.1 |
| 20260508063937 | 50 | 353 | 0.0 | 0.0 | 0.00 | 0.00 | 0.00 | 96 | 1011.9 |
| 20260508063434 | 50 | 333 | 0.0 | 0.0 | 0.00 | 0.00 | 0.00 | 96 | 1012.1 |
| 20260508062932 | 50 | 350 | 0.0 | 0.0 | 0.00 | 0.00 | 0.00 | 96 | 1011.9 |
| 20260508062429 | 50 | 306 | 0.0 | 0.0 | 0.00 | 0.00 | 0.00 | 96 | 1012.1 |
| 20260508061926 | 50 | 305 | 0.0 | 0.0 | 0.00 | 0.00 | 0.00 | 96 | 1011.8 |
| 20260508061424 | 50 | 348 | 0.0 | 0.0 | 0.00 | 0.00 | 0.00 | 96 | 1011.6 |
| 20260508060920 | 50 | 348 | 0.0 | 0.0 | 0.00 | 0.00 | 0.00 | 96 | 1011.7 |
| 20260508060418 | 50 | 347 | 0.0 | 0.0 | 0.00 | 0.00 | 0.00 | 96 | 1011.7 |
| 20260508055913 | 50 | 4 | 0.0 | 0.0 | 0.00 | 0.00 | 0.00 | 96 | 1011.3 |
| 20260508055410 | 50 | 77 | 0.0 | 0.0 | 0.00 | 0.00 | 0.00 | 96 | 1011.5 |
| 20260508054906 | 50 | 33 | 0.0 | 0.0 | 0.00 | 0.00 | 0.00 | 96 | 1011.6 |
| 20260508054404 | 51 | 33 | 0.0 | 0.0 | 0.00 | 0.00 | 0.00 | 96 | 1011.4 |
| 20260508053901 | 51 | 33 | 0.0 | 0.0 | 0.00 | 0.00 | 0.00 | 96 | 1011.7 |
| 20260508053358 | 51 | 33 | 0.0 | 0.0 | 0.00 | 0.00 | 0.00 | 96 | 1011.5 |
| 20260508052855 | 51 | 72 | 0.0 | 0.0 | 0.00 | 0.00 | 0.00 | 96 | 1011.3 |
| 20260508052353 | 51 | 72 | 0.0 | 0.0 | 0.00 | 0.00 | 0.00 | 96 | 1011.4 |
| 20260508051849 | 51 | 72 | 0.0 | 0.0 | 0.00 | 0.00 | 0.00 | 96 | 1011.4 |
| 20260508051344 | 51 | 72 | 0.0 | 0.0 | 0.00 | 0.00 | 0.00 | 96 | 1011.2 |
| 20260508050841 | 51 | 72 | 0.0 | 0.0 | 0.00 | 0.00 | 0.00 | 96 | 1011.4 |
| 20260508050338 | 51 | 72 | 0.0 | 0.0 | 0.00 | 0.00 | 0.00 | 96 | 1011.2 |
| 20260508045833 | 51 | 16 | 0.0 | 0.0 | 0.00 | 0.00 | 0.00 | 96 | 1011.6 |
| 20260508045332 | 51 | 31 | 0.0 | 0.0 | 0.00 | 0.00 | 0.00 | 96 | 1011.3 |
| 20260508044829 | 51 | 9 | 0.0 | 0.0 | 0.00 | 0.00 | 0.00 | 96 | 1011.5 |
| 20260508044325 | 51 | 8 | 0.0 | 0.0 | 0.00 | 0.00 | 0.00 | 96 | 1011.3 |
| 20260508043821 | 51 | 11 | 0.0 | 0.0 | 0.00 | 0.00 | 0.00 | 96 | 1011.2 |
| 20260508043319 | 51 | 18 | 0.0 | 0.0 | 0.00 | 0.00 | 0.00 | 96 | 1011.2 |
| 20260508042815 | 51 | 26 | 0.0 | 0.0 | 0.00 | 0.00 | 0.00 | 96 | 1011.1 |
| 20260508042313 | 51 | 26 | 0.0 | 0.0 | 0.00 | 0.00 | 0.00 | 96 | 1010.8 |
| 20260508041810 | 51 | 42 | 0.0 | 0.0 | 0.00 | 0.00 | 0.00 | 96 | 1011.0 |
| 20260508041306 | 51 | 117 | 0.0 | 0.0 | 0.00 | 0.00 | 0.00 | 96 | 1010.9 |
| 20260508040802 | 51 | 7 | 0.0 | 0.0 | 0.00 | 0.00 | 0.00 | 95 | 1010.9 |
| 20260508040301 | 51 | 7 | 0.0 | 0.0 | 0.00 | 0.00 | 0.00 | 95 | 1010.9 |
| 20260508035757 | 51 | 20 | 0.0 | 0.0 | 0.00 | 0.84 | 0.84 | 95 | 1010.7 |
| 20260508035255 | 51 | 11 | 0.0 | 0.0 | 0.00 | 0.84 | 0.84 | 95 | 1010.6 |
| 20260508034751 | 51 | 39 | 0.0 | 0.0 | 0.00 | 0.84 | 0.84 | 95 | 1010.6 |
| 20260508034248 | 51 | 359 | 0.0 | 0.0 | 0.00 | 0.84 | 0.84 | 95 | 1010.5 |
| 20260508033745 | 51 | 16 | 0.0 | 0.0 | 0.00 | 0.84 | 0.84 | 95 | 1010.2 |
| 20260508033244 | 51 | 15 | 0.0 | 0.0 | 0.00 | 0.84 | 0.84 | 95 | 1010.3 |
| 20260508032741 | 52 | 0 | 0.0 | 0.0 | 0.00 | 0.84 | 0.84 | 95 | 1010.5 |
| 20260508032238 | 51 | 5 | 0.0 | 0.0 | 0.00 | 0.84 | 0.84 | 95 | 1010.3 |
| 20260508031735 | 52 | 0 | 0.9 | 0.9 | 0.00 | 0.84 | 0.84 | 95 | 1010.1 |
| 20260508031231 | 52 | 11 | 0.0 | 0.0 | 0.00 | 0.84 | 0.84 | 95 | 1009.9 |
| 20260508030727 | 52 | 15 | 0.0 | 0.0 | 0.00 | 0.84 | 0.84 | 95 | 1010.4 |
| 20260508030225 | 52 | 12 | 0.0 | 0.0 | 0.00 | 0.84 | 0.84 | 95 | 1010.4 |
| 20260508025721 | 52 | 8 | 0.0 | 0.0 | 0.00 | 0.84 | 0.84 | 95 | 1010.4 |
| 20260508025219 | 52 | 354 | 0.9 | 0.9 | 0.00 | 0.84 | 0.84 | 95 | 1010.4 |
| 20260508024714 | 52 | 358 | 0.0 | 0.0 | 0.00 | 0.84 | 0.84 | 95 | 1010.4 |
| 20260508024212 | 52 | 357 | 0.0 | 0.0 | 0.00 | 0.84 | 0.84 | 95 | 1010.4 |
| 20260508023708 | 52 | 357 | 0.0 | 0.0 | 0.00 | 0.84 | 0.84 | 95 | 1010.3 |
| 20260508023206 | 52 | 5 | 0.0 | 0.0 | 0.00 | 0.84 | 0.84 | 95 | 1010.5 |
| 20260508022701 | 52 | 12 | 0.0 | 0.0 | 0.00 | 0.84 | 0.84 | 95 | 1010.1 |
| 20260508022158 | 52 | 346 | 0.0 | 0.0 | 0.00 | 0.84 | 0.84 | 95 | 1010.6 |
| 20260508021654 | 52 | 320 | 0.9 | 0.9 | 0.00 | 0.84 | 0.84 | 95 | 1010.2 |
| 20260508021150 | 52 | 359 | 0.9 | 0.9 | 0.00 | 0.84 | 0.84 | 95 | 1010.2 |
| 20260508020648 | 52 | 302 | 0.0 | 0.0 | 0.00 | 0.84 | 0.84 | 95 | 1010.2 |
| 20260508020145 | 52 | 293 | 0.0 | 0.0 | 0.00 | 0.84 | 0.84 | 95 | 1010.0 |
| 20260508015643 | 52 | 17 | 0.0 | 0.0 | 0.00 | 0.84 | 0.84 | 95 | 1009.9 |
| 20260508015139 | 52 | 258 | 0.0 | 0.9 | 0.00 | 0.84 | 0.84 | 95 | 1010.2 |
| 20260508014636 | 52 | 352 | 0.0 | 0.0 | 0.00 | 0.84 | 0.84 | 95 | 1010.1 |
| 20260508014132 | 52 | 359 | 0.9 | 0.9 | 0.00 | 0.84 | 0.84 | 95 | 1009.9 |
| 20260508013628 | 52 | 349 | 0.0 | 0.9 | 0.00 | 0.84 | 0.84 | 95 | 1010.1 |
| 20260508013125 | 52 | 340 | 0.9 | 0.9 | 0.00 | 0.84 | 0.84 | 95 | 1009.8 |
| 20260508012623 | 52 | 0 | 1.7 | 1.7 | 0.00 | 0.84 | 0.84 | 95 | 1009.8 |
| 20260508012120 | 52 | 359 | 0.9 | 1.7 | 0.00 | 0.84 | 0.84 | 94 | 1009.5 |
| 20260508011618 | 51 | 13 | 0.0 | 0.0 | 0.07 | 0.84 | 0.84 | 94 | 1009.7 |
| 20260508011115 | 52 | 358 | 2.6 | 2.6 | 0.00 | 0.83 | 0.83 | 94 | 1009.5 |
| 20260508010612 | 52 | 354 | 0.9 | 0.9 | 0.00 | 0.83 | 0.83 | 94 | 1009.5 |
| 20260508010110 | 52 | 359 | 0.0 | 0.9 | 0.00 | 0.83 | 0.83 | 94 | 1009.3 |
| 20260508005606 | 52 | 356 | 0.0 | 0.0 | 0.00 | 0.83 | 0.83 | 94 | 1009.1 |
| 20260508005102 | 52 | 356 | 0.0 | 0.0 | 0.00 | 0.83 | 0.83 | 94 | 1009.3 |
| 20260508004559 | 52 | 349 | 0.0 | 0.9 | 0.00 | 0.83 | 0.83 | 94 | 1009.1 |
| 20260508004055 | 52 | 352 | 0.9 | 0.9 | 0.05 | 0.83 | 0.83 | 94 | 1009.0 |
| 20260508003552 | 52 | 44 | 0.0 | 0.0 | 0.05 | 0.83 | 0.83 | 94 | 1009.2 |
| 20260508003050 | 52 | 10 | 0.0 | 0.0 | 0.00 | 0.82 | 0.82 | 94 | 1009.0 |
| 20260508002546 | 52 | 18 | 0.0 | 0.0 | 0.00 | 0.82 | 0.82 | 94 | 1009.0 |
| 20260508002043 | 52 | 32 | 0.0 | 0.0 | 0.00 | 0.82 | 0.82 | 94 | 1008.8 |
| 20260508001538 | 52 | 35 | 0.0 | 0.0 | 0.00 | 0.82 | 0.82 | 94 | 1009.0 |
| 20260508001035 | 52 | 122 | 0.9 | 0.9 | 0.00 | 0.82 | 0.82 | 94 | 1009.1 |
| 20260508000531 | 52 | 5 | 0.0 | 0.0 | 0.00 | 0.82 | 0.82 | 94 | 1009.4 |
| 20260508000029 | 52 | 0 | 0.9 | 0.9 | 0.00 | 0.82 | 0.82 | 94 | 1009.4 |
| 20260507235525 | 52 | 15 | 0.0 | 0.0 | 0.00 | 0.82 | 0.82 | 95 | 1008.9 |
| 20260507235023 | 52 | 11 | 0.0 | 0.0 | 0.00 | 0.82 | 0.82 | 95 | 1009.0 |
| 20260507234519 | 51 | 25 | 0.0 | 0.0 | 0.00 | 0.82 | 0.82 | 95 | 1008.8 |
| 20260507234015 | 52 | 13 | 0.9 | 0.9 | 0.00 | 0.82 | 0.82 | 95 | 1009.4 |
| 20260507233512 | 51 | 9 | 0.0 | 0.9 | 0.00 | 0.82 | 0.82 | 95 | 1009.4 |
| 20260507233011 | 51 | 15 | 0.0 | 0.0 | 0.00 | 0.82 | 0.82 | 95 | 1009.1 |
| 20260507232507 | 51 | 2 | 0.0 | 0.9 | 0.00 | 0.82 | 0.82 | 95 | 1009.1 |
| 20260507232004 | 51 | 357 | 0.9 | 0.9 | 0.00 | 0.82 | 0.82 | 96 | 1009.2 |
| 20260507231500 | 51 | 20 | 0.0 | 0.0 | 0.00 | 0.82 | 0.82 | 96 | 1009.0 |
| 20260507230958 | 52 | 22 | 1.7 | 1.7 | 0.00 | 0.82 | 0.82 | 96 | 1008.9 |
| 20260507230454 | 52 | 7 | 2.6 | 2.6 | 0.00 | 0.82 | 0.82 | 96 | 1009.0 |
| 20260507225950 | 52 | 4 | 0.0 | 0.9 | 0.00 | 0.82 | 0.82 | 96 | 1008.7 |
| 20260507225446 | 52 | 4 | 2.6 | 2.6 | 0.00 | 0.82 | 0.82 | 96 | 1008.5 |
| 20260507224942 | 52 | 359 | 0.9 | 0.9 | 0.00 | 0.82 | 0.82 | 96 | 1008.7 |
| 20260507224438 | 52 | 13 | 0.9 | 1.7 | 0.00 | 0.82 | 0.82 | 96 | 1008.5 |
| 20260507223935 | 52 | 16 | 0.9 | 0.9 | 0.00 | 0.82 | 0.82 | 96 | 1008.4 |
| 20260507223431 | 52 | 353 | 0.9 | 1.7 | 0.00 | 0.82 | 0.82 | 96 | 1008.2 |
| 20260507222928 | 52 | 2 | 1.7 | 2.6 | 0.00 | 0.82 | 0.82 | 96 | 1008.2 |
| 20260507222425 | 52 | 349 | 1.7 | 1.7 | 0.00 | 0.82 | 0.82 | 96 | 1008.3 |
| 20260507221922 | 52 | 37 | 0.9 | 0.9 | 0.00 | 0.82 | 0.82 | 96 | 1008.2 |
| 20260507221419 | 53 | 350 | 0.9 | 1.7 | 0.00 | 0.82 | 0.82 | 96 | 1007.9 |
| 20260507220914 | 52 | 19 | 0.0 | 0.9 | 0.00 | 0.82 | 0.82 | 96 | 1008.1 |
| 20260507220412 | 53 | 342 | 1.7 | 1.7 | 0.00 | 0.82 | 0.82 | 96 | 1008.2 |
| 20260507215909 | 53 | 19 | 0.9 | 0.9 | 0.00 | 0.82 | 0.82 | 96 | 1007.8 |
| 20260507215406 | 53 | 344 | 2.6 | 2.6 | 0.00 | 0.82 | 0.82 | 96 | 1007.7 |
| 20260507214903 | 53 | 7 | 0.0 | 0.0 | 0.00 | 0.82 | 0.82 | 96 | 1007.7 |
| 20260507214400 | 53 | 355 | 1.7 | 2.6 | 0.00 | 0.82 | 0.82 | 96 | 1007.5 |
| 20260507213856 | 54 | 5 | 2.6 | 2.6 | 0.00 | 0.82 | 0.82 | 96 | 1007.6 |
| 20260507213352 | 54 | 351 | 1.7 | 1.7 | 0.00 | 0.82 | 0.82 | 96 | 1007.9 |
| 20260507212849 | 54 | 5 | 1.7 | 1.7 | 0.00 | 0.82 | 0.82 | 96 | 1007.4 |
| 20260507212346 | 54 | 356 | 1.7 | 1.7 | 0.00 | 0.82 | 0.82 | 96 | 1007.5 |
| 20260507211842 | 53 | 23 | 0.9 | 1.7 | 0.00 | 0.82 | 0.82 | 96 | 1007.7 |
| 20260507211339 | 53 | 351 | 0.0 | 0.0 | 0.00 | 0.82 | 0.82 | 96 | 1007.9 |
| 20260507210836 | 54 | 4 | 0.9 | 0.9 | 0.00 | 0.82 | 0.82 | 96 | 1007.5 |
| 20260507210333 | 53 | 24 | 0.9 | 1.7 | 0.07 | 0.82 | 0.82 | 96 | 1007.7 |
| 20260507205829 | 54 | 354 | 2.6 | 2.6 | 0.07 | 0.82 | 0.82 | 96 | 1007.4 |
| 20260507205326 | 53 | 13 | 0.9 | 1.7 | 0.07 | 0.82 | 0.82 | 96 | 1007.6 |
| 20260507204822 | 53 | 355 | 1.7 | 2.6 | 0.00 | 0.81 | 0.81 | 96 | 1007.6 |
| 20260507204320 | 53 | 346 | 1.7 | 2.6 | 0.05 | 0.81 | 0.81 | 96 | 1007.3 |
| 20260507203818 | 54 | 357 | 0.9 | 0.9 | 0.05 | 0.81 | 0.81 | 96 | 1007.2 |
| 20260507203315 | 54 | 27 | 0.9 | 0.9 | 0.00 | 0.80 | 0.80 | 96 | 1007.2 |
| 20260507202811 | 54 | 9 | 0.9 | 1.7 | 0.00 | 0.80 | 0.80 | 96 | 1006.9 |
| 20260507202308 | 54 | 21 | 1.7 | 2.6 | 0.07 | 0.80 | 0.80 | 96 | 1007.0 |
| 20260507201803 | 54 | 352 | 0.0 | 0.9 | 0.12 | 0.80 | 0.80 | 96 | 1007.2 |
| 20260507201259 | 54 | 9 | 0.9 | 0.9 | 0.12 | 0.79 | 0.79 | 96 | 1007.1 |
| 20260507200755 | 54 | 10 | 1.7 | 2.6 | 0.00 | 0.77 | 0.77 | 96 | 1007.6 |
| 20260507200251 | 54 | 15 | 1.7 | 1.7 | 0.00 | 0.77 | 0.77 | 96 | 1007.3 |
| 20260507195748 | 54 | 17 | 0.0 | 0.9 | 0.00 | 0.77 | 0.77 | 96 | 1007.1 |
| 20260507195245 | 54 | 7 | 1.7 | 2.6 | 0.00 | 0.77 | 0.77 | 96 | 1007.2 |
| 20260507194743 | 55 | 345 | 2.6 | 2.6 | 0.00 | 0.77 | 0.77 | 96 | 1007.2 |
| 20260507194238 | 55 | 1 | 0.9 | 0.9 | 0.00 | 0.77 | 0.77 | 96 | 1007.0 |
| 20260507193735 | 55 | 6 | 1.7 | 1.7 | 0.00 | 0.77 | 0.77 | 96 | 1007.2 |
| 20260507193231 | 55 | 17 | 0.9 | 0.9 | 0.00 | 0.77 | 0.77 | 96 | 1007.1 |
| 20260507192728 | 55 | 11 | 2.6 | 2.6 | 0.00 | 0.77 | 0.77 | 96 | 1006.8 |
| 20260507192225 | 56 | 358 | 2.6 | 2.6 | 0.00 | 0.77 | 0.77 | 96 | 1006.9 |
| 20260507191721 | 56 | 17 | 0.0 | 0.9 | 0.05 | 0.77 | 0.77 | 96 | 1006.8 |
| 20260507191218 | 56 | 8 | 0.0 | 0.0 | 0.05 | 0.77 | 0.77 | 96 | 1007.1 |
| 20260507190714 | 56 | 34 | 1.7 | 2.6 | 0.07 | 0.76 | 0.76 | 96 | 1007.0 |
| 20260507181259 | 56 | 286 | 0.9 | 0.9 | 0.00 | 0.73 | 0.73 | 96 | 1008.2 |
| 20260507180756 | 56 | 286 | 0.9 | 0.9 | 0.00 | 0.73 | 0.73 | 96 | 1008.2 |
| 20260507180253 | 56 | 308 | 0.0 | 0.0 | 0.00 | 0.73 | 0.73 | 96 | 1008.3 |
| 20260507175748 | 56 | 8 | 0.9 | 1.7 | 0.00 | 0.73 | 0.73 | 96 | 1007.9 |
| 20260507175245 | 56 | 16 | 0.9 | 0.9 | 0.00 | 0.73 | 0.73 | 96 | 1008.1 |
| 20260507174743 | 56 | 13 | 0.0 | 0.0 | 0.00 | 0.73 | 0.73 | 96 | 1008.2 |
| 20260507174241 | 56 | 34 | 1.7 | 2.6 | 0.07 | 0.73 | 0.73 | 95 | 1008.4 |
| 20260507173738 | 56 | 355 | 3.5 | 5.2 | 0.07 | 0.73 | 0.73 | 95 | 1007.9 |
| 20260507173235 | 56 | 2 | 0.9 | 1.7 | 0.12 | 0.72 | 0.72 | 95 | 1008.4 |
| 20260507172731 | 57 | 1 | 1.7 | 1.7 | 0.17 | 0.72 | 0.72 | 95 | 1008.7 |
| 20260507172223 | 56 | 1 | 1.7 | 2.6 | 0.17 | 0.70 | 0.70 | 95 | 1008.5 |
| 20260507171722 | 56 | 317 | 2.6 | 2.6 | 0.19 | 0.69 | 0.69 | 95 | 1008.6 |
| 20260507171220 | 56 | 3 | 0.9 | 1.7 | 0.31 | 0.67 | 0.67 | 95 | 1008.8 |
| 20260507170717 | 56 | 10 | 2.6 | 2.6 | 0.47 | 0.66 | 0.66 | 95 | 1008.8 |